Weather History for Chapel Hill, NC

Change the Weather History Date:

Tuesday, March 12, 2013

  Actual Average Record
Temperature  
Mean Temperature 60 °F -  
Max Temperature 69 °F 62 °F 85 °F (1990)
Min Temperature 48 °F 36 °F 20 °F (1969)
Degree Days  
Heating Degree Days 6    
Growing Degree Days 10 (Base 50)    
Moisture  
Dew Point 53 °F    
Average Humidity 78    
Maximum Humidity 93    
Minimum Humidity 43    
Precipitation  
Precipitation 0.62 in - - ()
Sea Level Pressure  
Sea Level Pressure 29.82 in    
Wind  
Wind Speed 6 mph (West)    
Max Wind Speed 14 mph    
Max Gust Speed 21 mph    
Visibility 8 miles    
Events Rain    
Averages and records for this station are not official NWS values.
T = Trace of Precipitation, MM = Missing Value Source: NWS Daily Summary

Daily Weather History Graph

Daily Weather History Graph

Search for Another Location

Airport:

Trip Planner

Search our weather history database for the weather conditions in past years. The results will help you decide how hot, cold, wet, or windy it might be!

Date:

Astronomy

Mar. 12, 2013 Rise Set
Actual Time 7:30 AM EDT 7:21 PM EDT
Civil Twilight 7:05 AM EDT 7:46 PM EDT
Nautical Twilight 6:35 AM EDT 8:16 PM EDT
Astronomical Twilight 6:05 AM EDT 8:46 PM EDT
Moon 7:39 AM EDT (3/12) 8:30 PM EDT (3/12)
Length of Visible Light 12h 41m
Length of Day
11h 50m
New Moon, 1% of the Moon is Illuminated
Mar 12
New Moon
Mar 19
First Quarter
Mar 27
Full
Apr 3
Last Quarter
Apr 10
New

Hourly Weather History & Observations

Time (EDT) Temp. Dew Point Humidity Pressure Visibility Wind Dir Wind Speed Gust Speed Precip Events Conditions
12:56 AM 60.1 °F 51.1 °F 72% 29.91 in 10.0 mi Variable 5.8 mph - N/A   Overcast
2:56 AM 57.9 °F 55.0 °F 90% 29.86 in 10.0 mi Variable 5.8 mph - 0.01 in Rain Light Rain
3:16 AM 57.9 °F 55.0 °F 90% 29.86 in 8.0 mi Variable 5.8 mph - 0.01 in Rain Light Rain
3:25 AM 57.9 °F 55.0 °F 90% 29.85 in 6.0 mi Variable 6.9 mph - 0.02 in Rain Light Rain
3:48 AM 57.0 °F 55.0 °F 93% 29.84 in 7.0 mi Variable 3.5 mph - 0.04 in Rain Light Rain
3:56 AM 57.0 °F 55.0 °F 93% 29.83 in 7.0 mi Variable 6.9 mph - 0.04 in Rain Light Rain
4:56 AM 57.9 °F 55.9 °F 93% 29.81 in 3.0 mi Variable 3.5 mph - 0.14 in Rain Rain
5:05 AM 57.9 °F 55.9 °F 93% 29.82 in 2.5 mi SSE 6.9 mph - 0.03 in Rain Rain
5:12 AM 57.9 °F 55.9 °F 93% 29.81 in 6.0 mi Variable 5.8 mph - 0.04 in Rain Light Rain
5:35 AM 59.0 °F 55.9 °F 90% 29.81 in 7.0 mi Variable 6.9 mph - 0.06 in Rain Light Rain
5:56 AM 59.0 °F 57.0 °F 93% 29.79 in 6.0 mi SSE 8.1 mph - 0.14 in Rain Light Rain
6:56 AM 60.1 °F 57.0 °F 90% 29.77 in 10.0 mi SSE 8.1 mph - 0.04 in Rain Light Rain
7:45 AM 61.0 °F 57.9 °F 90% 29.78 in 7.0 mi Variable 5.8 mph - 0.03 in Rain Light Rain
8:17 AM 60.1 °F 57.9 °F 93% 29.78 in 4.0 mi Calm Calm - 0.09 in Rain Light Rain
8:26 AM 60.1 °F 57.9 °F 93% 29.79 in 1.8 mi Variable 4.6 mph - 0.14 in Rain Heavy Rain
8:34 AM 60.1 °F 57.9 °F 93% 29.79 in 1.2 mi Calm Calm - 0.17 in Rain Rain
8:40 AM 60.1 °F 57.9 °F 93% 29.80 in 3.0 mi Variable 4.6 mph - 0.18 in Rain Light Rain
8:56 AM 60.1 °F 57.9 °F 93% 29.79 in 4.0 mi Variable 3.5 mph - 0.20 in Rain Light Rain
9:18 AM 60.1 °F 57.9 °F 93% 29.80 in 2.5 mi North - - 0.04 in Rain Rain
9:26 AM 61.0 °F 57.9 °F 90% 29.80 in 6.0 mi Variable 6.9 mph - 0.05 in Rain Light Rain
9:33 AM 61.0 °F 57.9 °F 90% 29.81 in 10.0 mi SW 8.1 mph - 0.05 in   Overcast
9:43 AM 61.0 °F 57.9 °F 90% 29.81 in 10.0 mi SW 10.4 mph - 0.05 in   Overcast
9:56 AM 62.1 °F 57.9 °F 86% 29.80 in 10.0 mi SW 8.1 mph - 0.05 in   Overcast
10:56 AM 62.1 °F 57.9 °F 86% 29.80 in 10.0 mi North - - 0.00 in   Overcast
11:06 AM 62.1 °F 57.9 °F 86% 29.81 in 10.0 mi Variable 5.8 mph - N/A   Overcast
11:13 AM 62.1 °F 57.9 °F 86% 29.81 in 10.0 mi Variable 4.6 mph - N/A   Overcast
11:56 AM 63.0 °F 57.9 °F 84% 29.81 in 10.0 mi Variable 5.8 mph - N/A   Overcast
12:21 PM 64.9 °F 57.9 °F 78% 29.81 in 10.0 mi Variable 4.6 mph - N/A   Mostly Cloudy
12:35 PM 66.0 °F 57.9 °F 75% 29.81 in 10.0 mi West 8.1 mph - N/A   Mostly Cloudy
12:56 PM 62.1 °F 55.0 °F 78% 29.81 in 10.0 mi WNW 12.7 mph 20.7 mph N/A   Overcast
1:12 PM 63.0 °F 55.9 °F 78% 29.82 in 10.0 mi WNW 9.2 mph - N/A   Overcast
1:56 PM 63.0 °F 54.0 °F 72% 29.80 in 10.0 mi Variable 6.9 mph - N/A   Scattered Clouds
2:14 PM 64.0 °F 55.0 °F 73% 29.80 in 10.0 mi WNW 8.1 mph - N/A   Mostly Cloudy
2:26 PM 64.9 °F 55.0 °F 70% 29.80 in 10.0 mi WNW 10.4 mph - N/A   Mostly Cloudy
2:56 PM 66.0 °F 54.0 °F 65% 29.77 in 10.0 mi WNW 8.1 mph - N/A   Partly Cloudy
3:56 PM 68.0 °F 53.1 °F 59% 29.77 in 10.0 mi West 8.1 mph - N/A   Mostly Cloudy
4:56 PM 66.9 °F 48.9 °F 52% 29.78 in 10.0 mi West 13.8 mph 19.6 mph N/A   Mostly Cloudy
5:56 PM 66.0 °F 45.0 °F 47% 29.79 in 10.0 mi West 9.2 mph - N/A   Clear
6:56 PM 62.1 °F 39.0 °F 43% 29.83 in 10.0 mi WNW 10.4 mph - N/A   Clear
7:56 PM 54.0 °F 37.0 °F 53% 29.86 in 10.0 mi WNW 4.6 mph - N/A   Clear
8:56 PM 55.9 °F 35.1 °F 45% 29.90 in 10.0 mi NW 8.1 mph - N/A   Clear
9:56 PM 52.0 °F 30.9 °F 45% 29.93 in 10.0 mi NW 6.9 mph - N/A   Clear
10:56 PM 51.1 °F 28.9 °F 43% 29.95 in 10.0 mi NW 9.2 mph - N/A   Clear
11:56 PM 48.9 °F 28.0 °F 44% 29.96 in 10.0 mi NW 9.2 mph - N/A   Clear